locationName,lineName,date,time,countIn,countOut
��Ƃ�̍L��,�C�ݕ���,2022/6/1,0:00,3,6
��Ƃ�̍L��,�C�ݕ���,2022/6/1,1:00,0,2
��Ƃ�̍L��,�C�ݕ���,2022/6/1,2:00,0,0
��Ƃ�̍L��,�C�ݕ���,2022/6/1,3:00,3,1
��Ƃ�̍L��,�C�ݕ���,2022/6/1,4:00,1,1
��Ƃ�̍L��,�C�ݕ���,2022/6/1,5:00,6,6
��Ƃ�̍L��,�C�ݕ���,2022/6/1,6:00,10,12
��Ƃ�̍L��,�C�ݕ���,2022/6/1,7:00,11,14
��Ƃ�̍L��,�C�ݕ���,2022/6/1,8:00,40,22
��Ƃ�̍L��,�C�ݕ���,2022/6/1,9:00,44,23
��Ƃ�̍L��,�C�ݕ���,2022/6/1,10:00,47,21
��Ƃ�̍L��,�C�ݕ���,2022/6/1,11:00,92,36
��Ƃ�̍L��,�C�ݕ���,2022/6/1,12:00,64,38
��Ƃ�̍L��,�C�ݕ���,2022/6/1,13:00,79,51
��Ƃ�̍L��,�C�ݕ���,2022/6/1,14:00,62,29
��Ƃ�̍L��,�C�ݕ���,2022/6/1,15:00,41,37
��Ƃ�̍L��,�C�ݕ���,2022/6/1,16:00,53,36
��Ƃ�̍L��,�C�ݕ���,2022/6/1,17:00,70,25
��Ƃ�̍L��,�C�ݕ���,2022/6/1,18:00,59,29
��Ƃ�̍L��,�C�ݕ���,2022/6/1,19:00,42,16
��Ƃ�̍L��,�C�ݕ���,2022/6/1,20:00,29,13
��Ƃ�̍L��,�C�ݕ���,2022/6/1,21:00,17,16
��Ƃ�̍L��,�C�ݕ���,2022/6/1,22:00,19,5
��Ƃ�̍L��,�C�ݕ���,2022/6/1,23:00,4,6
��Ƃ�̍L��,�C�ݕ���,2022/6/2,0:00,5,1
��Ƃ�̍L��,�C�ݕ���,2022/6/2,1:00,1,0
��Ƃ�̍L��,�C�ݕ���,2022/6/2,2:00,1,1
��Ƃ�̍L��,�C�ݕ���,2022/6/2,3:00,0,2
��Ƃ�̍L��,�C�ݕ���,2022/6/2,4:00,3,2
��Ƃ�̍L��,�C�ݕ���,2022/6/2,5:00,4,10
��Ƃ�̍L��,�C�ݕ���,2022/6/2,6:00,10,8
��Ƃ�̍L��,�C�ݕ���,2022/6/2,7:00,14,15
��Ƃ�̍L��,�C�ݕ���,2022/6/2,8:00,21,24
��Ƃ�̍L��,�C�ݕ���,2022/6/2,9:00,47,26
��Ƃ�̍L��,�C�ݕ���,2022/6/2,10:00,53,22
��Ƃ�̍L��,�C�ݕ���,2022/6/2,11:00,49,34
��Ƃ�̍L��,�C�ݕ���,2022/6/2,12:00,70,35
��Ƃ�̍L��,�C�ݕ���,2022/6/2,13:00,65,27
��Ƃ�̍L��,�C�ݕ���,2022/6/2,14:00,47,27
��Ƃ�̍L��,�C�ݕ���,2022/6/2,15:00,44,36
��Ƃ�̍L��,�C�ݕ���,2022/6/2,16:00,44,28
��Ƃ�̍L��,�C�ݕ���,2022/6/2,17:00,45,35
��Ƃ�̍L��,�C�ݕ���,2022/6/2,18:00,42,22
��Ƃ�̍L��,�C�ݕ���,2022/6/2,19:00,30,14
��Ƃ�̍L��,�C�ݕ���,2022/6/2,20:00,21,9
��Ƃ�̍L��,�C�ݕ���,2022/6/2,21:00,27,13
��Ƃ�̍L��,�C�ݕ���,2022/6/2,22:00,6,9
��Ƃ�̍L��,�C�ݕ���,2022/6/2,23:00,5,3
��Ƃ�̍L��,�C�ݕ���,2022/6/3,0:00,3,1
��Ƃ�̍L��,�C�ݕ���,2022/6/3,1:00,1,1
��Ƃ�̍L��,�C�ݕ���,2022/6/3,2:00,1,0
��Ƃ�̍L��,�C�ݕ���,2022/6/3,3:00,0,1
��Ƃ�̍L��,�C�ݕ���,2022/6/3,4:00,4,2
��Ƃ�̍L��,�C�ݕ���,2022/6/3,5:00,2,6
��Ƃ�̍L��,�C�ݕ���,2022/6/3,6:00,8,5
��Ƃ�̍L��,�C�ݕ���,2022/6/3,7:00,12,11
��Ƃ�̍L��,�C�ݕ���,2022/6/3,8:00,23,21
��Ƃ�̍L��,�C�ݕ���,2022/6/3,9:00,48,24
��Ƃ�̍L��,�C�ݕ���,2022/6/3,10:00,55,28
��Ƃ�̍L��,�C�ݕ���,2022/6/3,11:00,106,44
��Ƃ�̍L��,�C�ݕ���,2022/6/3,12:00,83,38
��Ƃ�̍L��,�C�ݕ���,2022/6/3,13:00,63,41
��Ƃ�̍L��,�C�ݕ���,2022/6/3,14:00,60,41
��Ƃ�̍L��,�C�ݕ���,2022/6/3,15:00,55,49
��Ƃ�̍L��,�C�ݕ���,2022/6/3,16:00,161,72
��Ƃ�̍L��,�C�ݕ���,2022/6/3,17:00,55,26
��Ƃ�̍L��,�C�ݕ���,2022/6/3,18:00,53,31
��Ƃ�̍L��,�C�ݕ���,2022/6/3,19:00,41,15
��Ƃ�̍L��,�C�ݕ���,2022/6/3,20:00,28,14
��Ƃ�̍L��,�C�ݕ���,2022/6/3,21:00,31,8
��Ƃ�̍L��,�C�ݕ���,2022/6/3,22:00,11,6
��Ƃ�̍L��,�C�ݕ���,2022/6/3,23:00,10,2
��Ƃ�̍L��,�C�ݕ���,2022/6/4,0:00,4,5
��Ƃ�̍L��,�C�ݕ���,2022/6/4,1:00,6,2
��Ƃ�̍L��,�C�ݕ���,2022/6/4,2:00,2,1
��Ƃ�̍L��,�C�ݕ���,2022/6/4,3:00,1,2
��Ƃ�̍L��,�C�ݕ���,2022/6/4,4:00,5,2
��Ƃ�̍L��,�C�ݕ���,2022/6/4,5:00,1,6
��Ƃ�̍L��,�C�ݕ���,2022/6/4,6:00,6,9
��Ƃ�̍L��,�C�ݕ���,2022/6/4,7:00,7,8
��Ƃ�̍L��,�C�ݕ���,2022/6/4,8:00,20,20
��Ƃ�̍L��,�C�ݕ���,2022/6/4,9:00,34,26
��Ƃ�̍L��,�C�ݕ���,2022/6/4,10:00,69,46
��Ƃ�̍L��,�C�ݕ���,2022/6/4,11:00,103,71
��Ƃ�̍L��,�C�ݕ���,2022/6/4,12:00,109,76
��Ƃ�̍L��,�C�ݕ���,2022/6/4,13:00,152,98
��Ƃ�̍L��,�C�ݕ���,2022/6/4,14:00,114,74
��Ƃ�̍L��,�C�ݕ���,2022/6/4,15:00,111,69
��Ƃ�̍L��,�C�ݕ���,2022/6/4,16:00,87,88
��Ƃ�̍L��,�C�ݕ���,2022/6/4,17:00,67,68
��Ƃ�̍L��,�C�ݕ���,2022/6/4,18:00,64,48
��Ƃ�̍L��,�C�ݕ���,2022/6/4,19:00,30,19
��Ƃ�̍L��,�C�ݕ���,2022/6/4,20:00,31,12
��Ƃ�̍L��,�C�ݕ���,2022/6/4,21:00,23,6
��Ƃ�̍L��,�C�ݕ���,2022/6/4,22:00,16,5
��Ƃ�̍L��,�C�ݕ���,2022/6/4,23:00,8,3
��Ƃ�̍L��,�C�ݕ���,2022/6/5,0:00,2,2
��Ƃ�̍L��,�C�ݕ���,2022/6/5,1:00,4,7
��Ƃ�̍L��,�C�ݕ���,2022/6/5,2:00,2,1
��Ƃ�̍L��,�C�ݕ���,2022/6/5,3:00,1,1
��Ƃ�̍L��,�C�ݕ���,2022/6/5,4:00,1,0
��Ƃ�̍L��,�C�ݕ���,2022/6/5,5:00,6,11
��Ƃ�̍L��,�C�ݕ���,2022/6/5,6:00,6,5
��Ƃ�̍L��,�C�ݕ���,2022/6/5,7:00,12,6
��Ƃ�̍L��,�C�ݕ���,2022/6/5,8:00,14,12
��Ƃ�̍L��,�C�ݕ���,2022/6/5,9:00,46,18
��Ƃ�̍L��,�C�ݕ���,2022/6/5,10:00,73,45
��Ƃ�̍L��,�C�ݕ���,2022/6/5,11:00,89,71
��Ƃ�̍L��,�C�ݕ���,2022/6/5,12:00,96,84
��Ƃ�̍L��,�C�ݕ���,2022/6/5,13:00,82,64
��Ƃ�̍L��,�C�ݕ���,2022/6/5,14:00,96,59
��Ƃ�̍L��,�C�ݕ���,2022/6/5,15:00,60,65
��Ƃ�̍L��,�C�ݕ���,2022/6/5,16:00,28,50
��Ƃ�̍L��,�C�ݕ���,2022/6/5,17:00,37,49
��Ƃ�̍L��,�C�ݕ���,2022/6/5,18:00,17,29
��Ƃ�̍L��,�C�ݕ���,2022/6/5,19:00,21,11
��Ƃ�̍L��,�C�ݕ���,2022/6/5,20:00,10,8
��Ƃ�̍L��,�C�ݕ���,2022/6/5,21:00,4,5
��Ƃ�̍L��,�C�ݕ���,2022/6/5,22:00,2,4
��Ƃ�̍L��,�C�ݕ���,2022/6/5,23:00,2,3
��Ƃ�̍L��,�C�ݕ���,2022/6/6,0:00,1,0
��Ƃ�̍L��,�C�ݕ���,2022/6/6,1:00,0,0
��Ƃ�̍L��,�C�ݕ���,2022/6/6,2:00,1,0
��Ƃ�̍L��,�C�ݕ���,2022/6/6,3:00,0,1
��Ƃ�̍L��,�C�ݕ���,2022/6/6,4:00,4,2
��Ƃ�̍L��,�C�ݕ���,2022/6/6,5:00,2,4
��Ƃ�̍L��,�C�ݕ���,2022/6/6,6:00,5,12
��Ƃ�̍L��,�C�ݕ���,2022/6/6,7:00,11,26
��Ƃ�̍L��,�C�ݕ���,2022/6/6,8:00,20,59
��Ƃ�̍L��,�C�ݕ���,2022/6/6,9:00,31,50
��Ƃ�̍L��,�C�ݕ���,2022/6/6,10:00,34,38
��Ƃ�̍L��,�C�ݕ���,2022/6/6,11:00,87,70
��Ƃ�̍L��,�C�ݕ���,2022/6/6,12:00,74,40
��Ƃ�̍L��,�C�ݕ���,2022/6/6,13:00,77,50
��Ƃ�̍L��,�C�ݕ���,2022/6/6,14:00,38,31
��Ƃ�̍L��,�C�ݕ���,2022/6/6,15:00,58,32
��Ƃ�̍L��,�C�ݕ���,2022/6/6,16:00,66,29
��Ƃ�̍L��,�C�ݕ���,2022/6/6,17:00,62,31
��Ƃ�̍L��,�C�ݕ���,2022/6/6,18:00,45,25
��Ƃ�̍L��,�C�ݕ���,2022/6/6,19:00,26,14
��Ƃ�̍L��,�C�ݕ���,2022/6/6,20:00,16,9
��Ƃ�̍L��,�C�ݕ���,2022/6/6,21:00,15,8
��Ƃ�̍L��,�C�ݕ���,2022/6/6,22:00,8,6
��Ƃ�̍L��,�C�ݕ���,2022/6/6,23:00,4,1
��Ƃ�̍L��,�C�ݕ���,2022/6/7,0:00,3,1
��Ƃ�̍L��,�C�ݕ���,2022/6/7,1:00,2,0
��Ƃ�̍L��,�C�ݕ���,2022/6/7,2:00,0,0
��Ƃ�̍L��,�C�ݕ���,2022/6/7,3:00,0,0
��Ƃ�̍L��,�C�ݕ���,2022/6/7,4:00,2,3
��Ƃ�̍L��,�C�ݕ���,2022/6/7,5:00,3,10
��Ƃ�̍L��,�C�ݕ���,2022/6/7,6:00,9,12
��Ƃ�̍L��,�C�ݕ���,2022/6/7,7:00,25,13
��Ƃ�̍L��,�C�ݕ���,2022/6/7,8:00,21,26
��Ƃ�̍L��,�C�ݕ���,2022/6/7,9:00,43,30
��Ƃ�̍L��,�C�ݕ���,2022/6/7,10:00,52,20
��Ƃ�̍L��,�C�ݕ���,2022/6/7,11:00,59,37
��Ƃ�̍L��,�C�ݕ���,2022/6/7,12:00,60,29
��Ƃ�̍L��,�C�ݕ���,2022/6/7,13:00,80,47
��Ƃ�̍L��,�C�ݕ���,2022/6/7,14:00,84,34
��Ƃ�̍L��,�C�ݕ���,2022/6/7,15:00,55,38
��Ƃ�̍L��,�C�ݕ���,2022/6/7,16:00,54,26
��Ƃ�̍L��,�C�ݕ���,2022/6/7,17:00,72,37
��Ƃ�̍L��,�C�ݕ���,2022/6/7,18:00,54,24
��Ƃ�̍L��,�C�ݕ���,2022/6/7,19:00,36,19
��Ƃ�̍L��,�C�ݕ���,2022/6/7,20:00,16,25
��Ƃ�̍L��,�C�ݕ���,2022/6/7,21:00,30,14
��Ƃ�̍L��,�C�ݕ���,2022/6/7,22:00,15,9
��Ƃ�̍L��,�C�ݕ���,2022/6/7,23:00,7,5
��Ƃ�̍L��,�C�ݕ���,2022/6/8,0:00,2,3
��Ƃ�̍L��,�C�ݕ���,2022/6/8,1:00,1,1
��Ƃ�̍L��,�C�ݕ���,2022/6/8,2:00,1,3
��Ƃ�̍L��,�C�ݕ���,2022/6/8,3:00,0,2
��Ƃ�̍L��,�C�ݕ���,2022/6/8,4:00,2,2
��Ƃ�̍L��,�C�ݕ���,2022/6/8,5:00,5,2
��Ƃ�̍L��,�C�ݕ���,2022/6/8,6:00,15,7
��Ƃ�̍L��,�C�ݕ���,2022/6/8,7:00,10,19
��Ƃ�̍L��,�C�ݕ���,2022/6/8,8:00,21,27
��Ƃ�̍L��,�C�ݕ���,2022/6/8,9:00,40,32
��Ƃ�̍L��,�C�ݕ���,2022/6/8,10:00,70,32
��Ƃ�̍L��,�C�ݕ���,2022/6/8,11:00,87,40
��Ƃ�̍L��,�C�ݕ���,2022/6/8,12:00,90,34
��Ƃ�̍L��,�C�ݕ���,2022/6/8,13:00,89,29
��Ƃ�̍L��,�C�ݕ���,2022/6/8,14:00,59,33
��Ƃ�̍L��,�C�ݕ���,2022/6/8,15:00,71,46
��Ƃ�̍L��,�C�ݕ���,2022/6/8,16:00,63,47
��Ƃ�̍L��,�C�ݕ���,2022/6/8,17:00,67,33
��Ƃ�̍L��,�C�ݕ���,2022/6/8,18:00,49,25
��Ƃ�̍L��,�C�ݕ���,2022/6/8,19:00,29,12
��Ƃ�̍L��,�C�ݕ���,2022/6/8,20:00,28,9
��Ƃ�̍L��,�C�ݕ���,2022/6/8,21:00,24,21
��Ƃ�̍L��,�C�ݕ���,2022/6/8,22:00,18,5
��Ƃ�̍L��,�C�ݕ���,2022/6/8,23:00,4,3
��Ƃ�̍L��,�C�ݕ���,2022/6/9,0:00,2,1
��Ƃ�̍L��,�C�ݕ���,2022/6/9,1:00,3,1
��Ƃ�̍L��,�C�ݕ���,2022/6/9,2:00,1,1
��Ƃ�̍L��,�C�ݕ���,2022/6/9,3:00,0,0
��Ƃ�̍L��,�C�ݕ���,2022/6/9,4:00,4,5
��Ƃ�̍L��,�C�ݕ���,2022/6/9,5:00,3,6
��Ƃ�̍L��,�C�ݕ���,2022/6/9,6:00,9,7
��Ƃ�̍L��,�C�ݕ���,2022/6/9,7:00,12,13
��Ƃ�̍L��,�C�ݕ���,2022/6/9,8:00,38,15
��Ƃ�̍L��,�C�ݕ���,2022/6/9,9:00,45,19
��Ƃ�̍L��,�C�ݕ���,2022/6/9,10:00,51,30
��Ƃ�̍L��,�C�ݕ���,2022/6/9,11:00,66,42
��Ƃ�̍L��,�C�ݕ���,2022/6/9,12:00,52,35
��Ƃ�̍L��,�C�ݕ���,2022/6/9,13:00,48,33
��Ƃ�̍L��,�C�ݕ���,2022/6/9,14:00,64,35
��Ƃ�̍L��,�C�ݕ���,2022/6/9,15:00,60,27
��Ƃ�̍L��,�C�ݕ���,2022/6/9,16:00,67,30
��Ƃ�̍L��,�C�ݕ���,2022/6/9,17:00,60,26
��Ƃ�̍L��,�C�ݕ���,2022/6/9,18:00,37,26
��Ƃ�̍L��,�C�ݕ���,2022/6/9,19:00,15,9
��Ƃ�̍L��,�C�ݕ���,2022/6/9,20:00,22,16
��Ƃ�̍L��,�C�ݕ���,2022/6/9,21:00,16,5
��Ƃ�̍L��,�C�ݕ���,2022/6/9,22:00,7,11
��Ƃ�̍L��,�C�ݕ���,2022/6/9,23:00,7,1
��Ƃ�̍L��,�C�ݕ���,2022/6/10,0:00,5,2
��Ƃ�̍L��,�C�ݕ���,2022/6/10,1:00,3,2
��Ƃ�̍L��,�C�ݕ���,2022/6/10,2:00,1,0
��Ƃ�̍L��,�C�ݕ���,2022/6/10,3:00,1,0
��Ƃ�̍L��,�C�ݕ���,2022/6/10,4:00,2,2
��Ƃ�̍L��,�C�ݕ���,2022/6/10,5:00,1,3
��Ƃ�̍L��,�C�ݕ���,2022/6/10,6:00,13,4
��Ƃ�̍L��,�C�ݕ���,2022/6/10,7:00,15,9
��Ƃ�̍L��,�C�ݕ���,2022/6/10,8:00,29,26
��Ƃ�̍L��,�C�ݕ���,2022/6/10,9:00,57,27
��Ƃ�̍L��,�C�ݕ���,2022/6/10,10:00,68,32
��Ƃ�̍L��,�C�ݕ���,2022/6/10,11:00,86,66
��Ƃ�̍L��,�C�ݕ���,2022/6/10,12:00,74,32
��Ƃ�̍L��,�C�ݕ���,2022/6/10,13:00,73,42
��Ƃ�̍L��,�C�ݕ���,2022/6/10,14:00,83,44
��Ƃ�̍L��,�C�ݕ���,2022/6/10,15:00,111,52
��Ƃ�̍L��,�C�ݕ���,2022/6/10,16:00,86,40
��Ƃ�̍L��,�C�ݕ���,2022/6/10,17:00,80,41
��Ƃ�̍L��,�C�ݕ���,2022/6/10,18:00,48,30
��Ƃ�̍L��,�C�ݕ���,2022/6/10,19:00,31,15
��Ƃ�̍L��,�C�ݕ���,2022/6/10,20:00,22,9
��Ƃ�̍L��,�C�ݕ���,2022/6/10,21:00,26,9
��Ƃ�̍L��,�C�ݕ���,2022/6/10,22:00,8,9
��Ƃ�̍L��,�C�ݕ���,2022/6/10,23:00,11,1
��Ƃ�̍L��,�C�ݕ���,2022/6/11,0:00,3,1
��Ƃ�̍L��,�C�ݕ���,2022/6/11,1:00,2,0
��Ƃ�̍L��,�C�ݕ���,2022/6/11,2:00,2,6
��Ƃ�̍L��,�C�ݕ���,2022/6/11,3:00,0,2
��Ƃ�̍L��,�C�ݕ���,2022/6/11,4:00,1,0
��Ƃ�̍L��,�C�ݕ���,2022/6/11,5:00,1,3
��Ƃ�̍L��,�C�ݕ���,2022/6/11,6:00,9,4
��Ƃ�̍L��,�C�ݕ���,2022/6/11,7:00,9,11
��Ƃ�̍L��,�C�ݕ���,2022/6/11,8:00,20,23
��Ƃ�̍L��,�C�ݕ���,2022/6/11,9:00,35,16
��Ƃ�̍L��,�C�ݕ���,2022/6/11,10:00,46,44
��Ƃ�̍L��,�C�ݕ���,2022/6/11,11:00,59,57
��Ƃ�̍L��,�C�ݕ���,2022/6/11,12:00,104,64
��Ƃ�̍L��,�C�ݕ���,2022/6/11,13:00,111,70
��Ƃ�̍L��,�C�ݕ���,2022/6/11,14:00,106,45
��Ƃ�̍L��,�C�ݕ���,2022/6/11,15:00,84,54
��Ƃ�̍L��,�C�ݕ���,2022/6/11,16:00,64,39
��Ƃ�̍L��,�C�ݕ���,2022/6/11,17:00,64,95
��Ƃ�̍L��,�C�ݕ���,2022/6/11,18:00,63,96
��Ƃ�̍L��,�C�ݕ���,2022/6/11,19:00,33,34
��Ƃ�̍L��,�C�ݕ���,2022/6/11,20:00,14,13
��Ƃ�̍L��,�C�ݕ���,2022/6/11,21:00,32,23
��Ƃ�̍L��,�C�ݕ���,2022/6/11,22:00,18,10
��Ƃ�̍L��,�C�ݕ���,2022/6/11,23:00,7,3
��Ƃ�̍L��,�C�ݕ���,2022/6/12,0:00,8,11
��Ƃ�̍L��,�C�ݕ���,2022/6/12,1:00,4,2
��Ƃ�̍L��,�C�ݕ���,2022/6/12,2:00,0,0
��Ƃ�̍L��,�C�ݕ���,2022/6/12,3:00,1,2
��Ƃ�̍L��,�C�ݕ���,2022/6/12,4:00,3,3
��Ƃ�̍L��,�C�ݕ���,2022/6/12,5:00,4,6
��Ƃ�̍L��,�C�ݕ���,2022/6/12,6:00,10,3
��Ƃ�̍L��,�C�ݕ���,2022/6/12,7:00,4,8
��Ƃ�̍L��,�C�ݕ���,2022/6/12,8:00,24,17
��Ƃ�̍L��,�C�ݕ���,2022/6/12,9:00,40,17
��Ƃ�̍L��,�C�ݕ���,2022/6/12,10:00,74,44
��Ƃ�̍L��,�C�ݕ���,2022/6/12,11:00,125,61
��Ƃ�̍L��,�C�ݕ���,2022/6/12,12:00,143,87
��Ƃ�̍L��,�C�ݕ���,2022/6/12,13:00,118,107
��Ƃ�̍L��,�C�ݕ���,2022/6/12,14:00,130,88
��Ƃ�̍L��,�C�ݕ���,2022/6/12,15:00,105,52
��Ƃ�̍L��,�C�ݕ���,2022/6/12,16:00,62,57
��Ƃ�̍L��,�C�ݕ���,2022/6/12,17:00,104,70
��Ƃ�̍L��,�C�ݕ���,2022/6/12,18:00,30,22
��Ƃ�̍L��,�C�ݕ���,2022/6/12,19:00,17,20
��Ƃ�̍L��,�C�ݕ���,2022/6/12,20:00,21,6
��Ƃ�̍L��,�C�ݕ���,2022/6/12,21:00,10,7
��Ƃ�̍L��,�C�ݕ���,2022/6/12,22:00,6,1
��Ƃ�̍L��,�C�ݕ���,2022/6/12,23:00,3,1
��Ƃ�̍L��,�C�ݕ���,2022/6/13,0:00,1,3
��Ƃ�̍L��,�C�ݕ���,2022/6/13,1:00,4,4
��Ƃ�̍L��,�C�ݕ���,2022/6/13,2:00,1,3
��Ƃ�̍L��,�C�ݕ���,2022/6/13,3:00,0,0
��Ƃ�̍L��,�C�ݕ���,2022/6/13,4:00,1,4
��Ƃ�̍L��,�C�ݕ���,2022/6/13,5:00,3,5
��Ƃ�̍L��,�C�ݕ���,2022/6/13,6:00,7,5
��Ƃ�̍L��,�C�ݕ���,2022/6/13,7:00,7,8
��Ƃ�̍L��,�C�ݕ���,2022/6/13,8:00,16,26
��Ƃ�̍L��,�C�ݕ���,2022/6/13,9:00,47,22
��Ƃ�̍L��,�C�ݕ���,2022/6/13,10:00,47,33
��Ƃ�̍L��,�C�ݕ���,2022/6/13,11:00,80,51
��Ƃ�̍L��,�C�ݕ���,2022/6/13,12:00,75,67
��Ƃ�̍L��,�C�ݕ���,2022/6/13,13:00,71,61
��Ƃ�̍L��,�C�ݕ���,2022/6/13,14:00,84,56
��Ƃ�̍L��,�C�ݕ���,2022/6/13,15:00,78,46
��Ƃ�̍L��,�C�ݕ���,2022/6/13,16:00,76,33
��Ƃ�̍L��,�C�ݕ���,2022/6/13,17:00,51,32
��Ƃ�̍L��,�C�ݕ���,2022/6/13,18:00,38,28
��Ƃ�̍L��,�C�ݕ���,2022/6/13,19:00,23,12
��Ƃ�̍L��,�C�ݕ���,2022/6/13,20:00,14,8
��Ƃ�̍L��,�C�ݕ���,2022/6/13,21:00,10,7
��Ƃ�̍L��,�C�ݕ���,2022/6/13,22:00,11,3
��Ƃ�̍L��,�C�ݕ���,2022/6/13,23:00,2,1
��Ƃ�̍L��,�C�ݕ���,2022/6/14,0:00,4,1
��Ƃ�̍L��,�C�ݕ���,2022/6/14,1:00,0,1
��Ƃ�̍L��,�C�ݕ���,2022/6/14,2:00,0,1
��Ƃ�̍L��,�C�ݕ���,2022/6/14,3:00,1,0
��Ƃ�̍L��,�C�ݕ���,2022/6/14,4:00,1,0
��Ƃ�̍L��,�C�ݕ���,2022/6/14,5:00,4,5
��Ƃ�̍L��,�C�ݕ���,2022/6/14,6:00,3,9
��Ƃ�̍L��,�C�ݕ���,2022/6/14,7:00,15,15
��Ƃ�̍L��,�C�ݕ���,2022/6/14,8:00,12,34
��Ƃ�̍L��,�C�ݕ���,2022/6/14,9:00,40,29
��Ƃ�̍L��,�C�ݕ���,2022/6/14,10:00,50,36
��Ƃ�̍L��,�C�ݕ���,2022/6/14,11:00,70,52
��Ƃ�̍L��,�C�ݕ���,2022/6/14,12:00,53,39
��Ƃ�̍L��,�C�ݕ���,2022/6/14,13:00,54,33
��Ƃ�̍L��,�C�ݕ���,2022/6/14,14:00,41,34
��Ƃ�̍L��,�C�ݕ���,2022/6/14,15:00,54,39
��Ƃ�̍L��,�C�ݕ���,2022/6/14,16:00,53,38
��Ƃ�̍L��,�C�ݕ���,2022/6/14,17:00,55,33
��Ƃ�̍L��,�C�ݕ���,2022/6/14,18:00,41,36
��Ƃ�̍L��,�C�ݕ���,2022/6/14,19:00,22,20
��Ƃ�̍L��,�C�ݕ���,2022/6/14,20:00,25,29
��Ƃ�̍L��,�C�ݕ���,2022/6/14,21:00,30,12
��Ƃ�̍L��,�C�ݕ���,2022/6/14,22:00,6,5
��Ƃ�̍L��,�C�ݕ���,2022/6/14,23:00,4,3
��Ƃ�̍L��,�C�ݕ���,2022/6/15,0:00,3,0
��Ƃ�̍L��,�C�ݕ���,2022/6/15,1:00,1,3
��Ƃ�̍L��,�C�ݕ���,2022/6/15,2:00,1,0
��Ƃ�̍L��,�C�ݕ���,2022/6/15,3:00,1,0
��Ƃ�̍L��,�C�ݕ���,2022/6/15,4:00,2,2
��Ƃ�̍L��,�C�ݕ���,2022/6/15,5:00,1,2
��Ƃ�̍L��,�C�ݕ���,2022/6/15,6:00,3,9
��Ƃ�̍L��,�C�ݕ���,2022/6/15,7:00,15,17
��Ƃ�̍L��,�C�ݕ���,2022/6/15,8:00,23,42
��Ƃ�̍L��,�C�ݕ���,2022/6/15,9:00,46,34
��Ƃ�̍L��,�C�ݕ���,2022/6/15,10:00,60,37
��Ƃ�̍L��,�C�ݕ���,2022/6/15,11:00,80,46
��Ƃ�̍L��,�C�ݕ���,2022/6/15,12:00,50,36
��Ƃ�̍L��,�C�ݕ���,2022/6/15,13:00,63,47
��Ƃ�̍L��,�C�ݕ���,2022/6/15,14:00,64,35
��Ƃ�̍L��,�C�ݕ���,2022/6/15,15:00,88,39
��Ƃ�̍L��,�C�ݕ���,2022/6/15,16:00,61,45
��Ƃ�̍L��,�C�ݕ���,2022/6/15,17:00,69,36
��Ƃ�̍L��,�C�ݕ���,2022/6/15,18:00,65,40
��Ƃ�̍L��,�C�ݕ���,2022/6/15,19:00,34,18
��Ƃ�̍L��,�C�ݕ���,2022/6/15,20:00,22,18
��Ƃ�̍L��,�C�ݕ���,2022/6/15,21:00,30,26
��Ƃ�̍L��,�C�ݕ���,2022/6/15,22:00,7,3
��Ƃ�̍L��,�C�ݕ���,2022/6/15,23:00,3,3
��Ƃ�̍L��,�C�ݕ���,2022/6/16,0:00,2,3
��Ƃ�̍L��,�C�ݕ���,2022/6/16,1:00,2,0
��Ƃ�̍L��,�C�ݕ���,2022/6/16,2:00,2,1
��Ƃ�̍L��,�C�ݕ���,2022/6/16,3:00,2,1
��Ƃ�̍L��,�C�ݕ���,2022/6/16,4:00,1,1
��Ƃ�̍L��,�C�ݕ���,2022/6/16,5:00,2,6
��Ƃ�̍L��,�C�ݕ���,2022/6/16,6:00,12,3
��Ƃ�̍L��,�C�ݕ���,2022/6/16,7:00,8,9
��Ƃ�̍L��,�C�ݕ���,2022/6/16,8:00,26,25
��Ƃ�̍L��,�C�ݕ���,2022/6/16,9:00,38,28
��Ƃ�̍L��,�C�ݕ���,2022/6/16,10:00,54,29
��Ƃ�̍L��,�C�ݕ���,2022/6/16,11:00,79,39
��Ƃ�̍L��,�C�ݕ���,2022/6/16,12:00,50,32
��Ƃ�̍L��,�C�ݕ���,2022/6/16,13:00,59,36
��Ƃ�̍L��,�C�ݕ���,2022/6/16,14:00,66,39
��Ƃ�̍L��,�C�ݕ���,2022/6/16,15:00,58,45
��Ƃ�̍L��,�C�ݕ���,2022/6/16,16:00,74,48
��Ƃ�̍L��,�C�ݕ���,2022/6/16,17:00,51,27
��Ƃ�̍L��,�C�ݕ���,2022/6/16,18:00,53,38
��Ƃ�̍L��,�C�ݕ���,2022/6/16,19:00,29,18
��Ƃ�̍L��,�C�ݕ���,2022/6/16,20:00,16,5
��Ƃ�̍L��,�C�ݕ���,2022/6/16,21:00,28,10
��Ƃ�̍L��,�C�ݕ���,2022/6/16,22:00,16,2
��Ƃ�̍L��,�C�ݕ���,2022/6/16,23:00,3,4
��Ƃ�̍L��,�C�ݕ���,2022/6/17,0:00,5,5
��Ƃ�̍L��,�C�ݕ���,2022/6/17,1:00,4,2
��Ƃ�̍L��,�C�ݕ���,2022/6/17,2:00,0,0
��Ƃ�̍L��,�C�ݕ���,2022/6/17,3:00,1,2
��Ƃ�̍L��,�C�ݕ���,2022/6/17,4:00,2,5
��Ƃ�̍L��,�C�ݕ���,2022/6/17,5:00,1,3
��Ƃ�̍L��,�C�ݕ���,2022/6/17,6:00,5,5
��Ƃ�̍L��,�C�ݕ���,2022/6/17,7:00,17,8
��Ƃ�̍L��,�C�ݕ���,2022/6/17,8:00,37,24
��Ƃ�̍L��,�C�ݕ���,2022/6/17,9:00,52,17
��Ƃ�̍L��,�C�ݕ���,2022/6/17,10:00,72,31
��Ƃ�̍L��,�C�ݕ���,2022/6/17,11:00,93,48
��Ƃ�̍L��,�C�ݕ���,2022/6/17,12:00,67,35
��Ƃ�̍L��,�C�ݕ���,2022/6/17,13:00,92,36
��Ƃ�̍L��,�C�ݕ���,2022/6/17,14:00,69,30
��Ƃ�̍L��,�C�ݕ���,2022/6/17,15:00,95,49
��Ƃ�̍L��,�C�ݕ���,2022/6/17,16:00,78,44
��Ƃ�̍L��,�C�ݕ���,2022/6/17,17:00,75,35
��Ƃ�̍L��,�C�ݕ���,2022/6/17,18:00,64,37
��Ƃ�̍L��,�C�ݕ���,2022/6/17,19:00,23,21
��Ƃ�̍L��,�C�ݕ���,2022/6/17,20:00,26,18
��Ƃ�̍L��,�C�ݕ���,2022/6/17,21:00,27,11
��Ƃ�̍L��,�C�ݕ���,2022/6/17,22:00,18,12
��Ƃ�̍L��,�C�ݕ���,2022/6/17,23:00,6,3
��Ƃ�̍L��,�C�ݕ���,2022/6/18,0:00,4,0
��Ƃ�̍L��,�C�ݕ���,2022/6/18,1:00,1,0
��Ƃ�̍L��,�C�ݕ���,2022/6/18,2:00,0,1
��Ƃ�̍L��,�C�ݕ���,2022/6/18,3:00,1,1
��Ƃ�̍L��,�C�ݕ���,2022/6/18,4:00,1,1
��Ƃ�̍L��,�C�ݕ���,2022/6/18,5:00,2,4
��Ƃ�̍L��,�C�ݕ���,2022/6/18,6:00,7,7
��Ƃ�̍L��,�C�ݕ���,2022/6/18,7:00,5,7
��Ƃ�̍L��,�C�ݕ���,2022/6/18,8:00,18,15
��Ƃ�̍L��,�C�ݕ���,2022/6/18,9:00,52,30
��Ƃ�̍L��,�C�ݕ���,2022/6/18,10:00,53,43
��Ƃ�̍L��,�C�ݕ���,2022/6/18,11:00,88,44
��Ƃ�̍L��,�C�ݕ���,2022/6/18,12:00,101,80
��Ƃ�̍L��,�C�ݕ���,2022/6/18,13:00,108,69
��Ƃ�̍L��,�C�ݕ���,2022/6/18,14:00,119,104
��Ƃ�̍L��,�C�ݕ���,2022/6/18,15:00,102,94
��Ƃ�̍L��,�C�ݕ���,2022/6/18,16:00,72,42
��Ƃ�̍L��,�C�ݕ���,2022/6/18,17:00,60,52
��Ƃ�̍L��,�C�ݕ���,2022/6/18,18:00,56,35
��Ƃ�̍L��,�C�ݕ���,2022/6/18,19:00,45,26
��Ƃ�̍L��,�C�ݕ���,2022/6/18,20:00,34,14
��Ƃ�̍L��,�C�ݕ���,2022/6/18,21:00,17,14
��Ƃ�̍L��,�C�ݕ���,2022/6/18,22:00,17,6
��Ƃ�̍L��,�C�ݕ���,2022/6/18,23:00,13,5
��Ƃ�̍L��,�C�ݕ���,2022/6/19,0:00,4,6
��Ƃ�̍L��,�C�ݕ���,2022/6/19,1:00,2,4
��Ƃ�̍L��,�C�ݕ���,2022/6/19,2:00,2,2
��Ƃ�̍L��,�C�ݕ���,2022/6/19,3:00,0,0
��Ƃ�̍L��,�C�ݕ���,2022/6/19,4:00,1,2
��Ƃ�̍L��,�C�ݕ���,2022/6/19,5:00,8,9
��Ƃ�̍L��,�C�ݕ���,2022/6/19,6:00,7,4
��Ƃ�̍L��,�C�ݕ���,2022/6/19,7:00,11,13
��Ƃ�̍L��,�C�ݕ���,2022/6/19,8:00,22,15
��Ƃ�̍L��,�C�ݕ���,2022/6/19,9:00,21,11
��Ƃ�̍L��,�C�ݕ���,2022/6/19,10:00,41,44
��Ƃ�̍L��,�C�ݕ���,2022/6/19,11:00,75,72
��Ƃ�̍L��,�C�ݕ���,2022/6/19,12:00,101,69
��Ƃ�̍L��,�C�ݕ���,2022/6/19,13:00,109,70
��Ƃ�̍L��,�C�ݕ���,2022/6/19,14:00,100,64
��Ƃ�̍L��,�C�ݕ���,2022/6/19,15:00,92,74
��Ƃ�̍L��,�C�ݕ���,2022/6/19,16:00,60,38
��Ƃ�̍L��,�C�ݕ���,2022/6/19,17:00,31,39
��Ƃ�̍L��,�C�ݕ���,2022/6/19,18:00,24,16
��Ƃ�̍L��,�C�ݕ���,2022/6/19,19:00,25,14
��Ƃ�̍L��,�C�ݕ���,2022/6/19,20:00,14,12
��Ƃ�̍L��,�C�ݕ���,2022/6/19,21:00,15,7
��Ƃ�̍L��,�C�ݕ���,2022/6/19,22:00,11,1
��Ƃ�̍L��,�C�ݕ���,2022/6/19,23:00,2,0
��Ƃ�̍L��,�C�ݕ���,2022/6/20,0:00,3,1
��Ƃ�̍L��,�C�ݕ���,2022/6/20,1:00,2,1
��Ƃ�̍L��,�C�ݕ���,2022/6/20,2:00,0,0
��Ƃ�̍L��,�C�ݕ���,2022/6/20,3:00,1,0
��Ƃ�̍L��,�C�ݕ���,2022/6/20,4:00,2,1
��Ƃ�̍L��,�C�ݕ���,2022/6/20,5:00,4,4
��Ƃ�̍L��,�C�ݕ���,2022/6/20,6:00,8,5
��Ƃ�̍L��,�C�ݕ���,2022/6/20,7:00,16,6
��Ƃ�̍L��,�C�ݕ���,2022/6/20,8:00,27,25
��Ƃ�̍L��,�C�ݕ���,2022/6/20,9:00,38,25
��Ƃ�̍L��,�C�ݕ���,2022/6/20,10:00,60,35
��Ƃ�̍L��,�C�ݕ���,2022/6/20,11:00,52,46
��Ƃ�̍L��,�C�ݕ���,2022/6/20,12:00,58,35
��Ƃ�̍L��,�C�ݕ���,2022/6/20,13:00,61,41
��Ƃ�̍L��,�C�ݕ���,2022/6/20,14:00,82,37
��Ƃ�̍L��,�C�ݕ���,2022/6/20,15:00,99,40
��Ƃ�̍L��,�C�ݕ���,2022/6/20,16:00,58,36
��Ƃ�̍L��,�C�ݕ���,2022/6/20,17:00,47,27
��Ƃ�̍L��,�C�ݕ���,2022/6/20,18:00,36,28
��Ƃ�̍L��,�C�ݕ���,2022/6/20,19:00,25,11
��Ƃ�̍L��,�C�ݕ���,2022/6/20,20:00,14,8
��Ƃ�̍L��,�C�ݕ���,2022/6/20,21:00,8,5
��Ƃ�̍L��,�C�ݕ���,2022/6/20,22:00,8,4
��Ƃ�̍L��,�C�ݕ���,2022/6/20,23:00,0,1
��Ƃ�̍L��,�C�ݕ���,2022/6/21,0:00,4,1
��Ƃ�̍L��,�C�ݕ���,2022/6/21,1:00,1,0
��Ƃ�̍L��,�C�ݕ���,2022/6/21,2:00,0,1
��Ƃ�̍L��,�C�ݕ���,2022/6/21,3:00,0,1
��Ƃ�̍L��,�C�ݕ���,2022/6/21,4:00,1,3
��Ƃ�̍L��,�C�ݕ���,2022/6/21,5:00,1,3
��Ƃ�̍L��,�C�ݕ���,2022/6/21,6:00,5,3
��Ƃ�̍L��,�C�ݕ���,2022/6/21,7:00,10,9
��Ƃ�̍L��,�C�ݕ���,2022/6/21,8:00,31,29
��Ƃ�̍L��,�C�ݕ���,2022/6/21,9:00,37,30
��Ƃ�̍L��,�C�ݕ���,2022/6/21,10:00,62,32
��Ƃ�̍L��,�C�ݕ���,2022/6/21,11:00,47,30
��Ƃ�̍L��,�C�ݕ���,2022/6/21,12:00,57,48
��Ƃ�̍L��,�C�ݕ���,2022/6/21,13:00,47,24
��Ƃ�̍L��,�C�ݕ���,2022/6/21,14:00,67,32
��Ƃ�̍L��,�C�ݕ���,2022/6/21,15:00,56,26
��Ƃ�̍L��,�C�ݕ���,2022/6/21,16:00,56,28
��Ƃ�̍L��,�C�ݕ���,2022/6/21,17:00,54,22
��Ƃ�̍L��,�C�ݕ���,2022/6/21,18:00,34,24
��Ƃ�̍L��,�C�ݕ���,2022/6/21,19:00,21,13
��Ƃ�̍L��,�C�ݕ���,2022/6/21,20:00,9,16
��Ƃ�̍L��,�C�ݕ���,2022/6/21,21:00,17,5
��Ƃ�̍L��,�C�ݕ���,2022/6/21,22:00,10,3
��Ƃ�̍L��,�C�ݕ���,2022/6/21,23:00,3,3
��Ƃ�̍L��,�C�ݕ���,2022/6/22,0:00,1,4
��Ƃ�̍L��,�C�ݕ���,2022/6/22,1:00,5,1
��Ƃ�̍L��,�C�ݕ���,2022/6/22,2:00,1,1
��Ƃ�̍L��,�C�ݕ���,2022/6/22,3:00,1,0
��Ƃ�̍L��,�C�ݕ���,2022/6/22,4:00,1,1
��Ƃ�̍L��,�C�ݕ���,2022/6/22,5:00,4,3
��Ƃ�̍L��,�C�ݕ���,2022/6/22,6:00,8,7
��Ƃ�̍L��,�C�ݕ���,2022/6/22,7:00,10,9
��Ƃ�̍L��,�C�ݕ���,2022/6/22,8:00,25,24
��Ƃ�̍L��,�C�ݕ���,2022/6/22,9:00,44,22
��Ƃ�̍L��,�C�ݕ���,2022/6/22,10:00,52,28
��Ƃ�̍L��,�C�ݕ���,2022/6/22,11:00,94,41
��Ƃ�̍L��,�C�ݕ���,2022/6/22,12:00,67,34
��Ƃ�̍L��,�C�ݕ���,2022/6/22,13:00,57,39
��Ƃ�̍L��,�C�ݕ���,2022/6/22,14:00,51,40
��Ƃ�̍L��,�C�ݕ���,2022/6/22,15:00,56,34
��Ƃ�̍L��,�C�ݕ���,2022/6/22,16:00,60,29
��Ƃ�̍L��,�C�ݕ���,2022/6/22,17:00,69,38
��Ƃ�̍L��,�C�ݕ���,2022/6/22,18:00,49,32
��Ƃ�̍L��,�C�ݕ���,2022/6/22,19:00,21,11
��Ƃ�̍L��,�C�ݕ���,2022/6/22,20:00,22,12
��Ƃ�̍L��,�C�ݕ���,2022/6/22,21:00,17,18
��Ƃ�̍L��,�C�ݕ���,2022/6/22,22:00,10,4
��Ƃ�̍L��,�C�ݕ���,2022/6/22,23:00,3,0
��Ƃ�̍L��,�C�ݕ���,2022/6/23,0:00,4,3
��Ƃ�̍L��,�C�ݕ���,2022/6/23,1:00,0,0
��Ƃ�̍L��,�C�ݕ���,2022/6/23,2:00,0,0
��Ƃ�̍L��,�C�ݕ���,2022/6/23,3:00,0,2
��Ƃ�̍L��,�C�ݕ���,2022/6/23,4:00,3,2
��Ƃ�̍L��,�C�ݕ���,2022/6/23,5:00,2,2
��Ƃ�̍L��,�C�ݕ���,2022/6/23,6:00,5,5
��Ƃ�̍L��,�C�ݕ���,2022/6/23,7:00,10,7
��Ƃ�̍L��,�C�ݕ���,2022/6/23,8:00,24,19
��Ƃ�̍L��,�C�ݕ���,2022/6/23,9:00,43,39
��Ƃ�̍L��,�C�ݕ���,2022/6/23,10:00,59,42
��Ƃ�̍L��,�C�ݕ���,2022/6/23,11:00,77,39
��Ƃ�̍L��,�C�ݕ���,2022/6/23,12:00,76,34
��Ƃ�̍L��,�C�ݕ���,2022/6/23,13:00,50,44
��Ƃ�̍L��,�C�ݕ���,2022/6/23,14:00,46,34
��Ƃ�̍L��,�C�ݕ���,2022/6/23,15:00,46,33
��Ƃ�̍L��,�C�ݕ���,2022/6/23,16:00,47,22
��Ƃ�̍L��,�C�ݕ���,2022/6/23,17:00,47,29
��Ƃ�̍L��,�C�ݕ���,2022/6/23,18:00,30,25
��Ƃ�̍L��,�C�ݕ���,2022/6/23,19:00,11,12
��Ƃ�̍L��,�C�ݕ���,2022/6/23,20:00,11,6
��Ƃ�̍L��,�C�ݕ���,2022/6/23,21:00,19,11
��Ƃ�̍L��,�C�ݕ���,2022/6/23,22:00,8,3
��Ƃ�̍L��,�C�ݕ���,2022/6/23,23:00,2,3
��Ƃ�̍L��,�C�ݕ���,2022/6/24,0:00,4,2
��Ƃ�̍L��,�C�ݕ���,2022/6/24,1:00,1,0
��Ƃ�̍L��,�C�ݕ���,2022/6/24,2:00,1,0
��Ƃ�̍L��,�C�ݕ���,2022/6/24,3:00,3,2
��Ƃ�̍L��,�C�ݕ���,2022/6/24,4:00,1,3
��Ƃ�̍L��,�C�ݕ���,2022/6/24,5:00,2,6
��Ƃ�̍L��,�C�ݕ���,2022/6/24,6:00,3,1
��Ƃ�̍L��,�C�ݕ���,2022/6/24,7:00,4,8
��Ƃ�̍L��,�C�ݕ���,2022/6/24,8:00,20,19
��Ƃ�̍L��,�C�ݕ���,2022/6/24,9:00,24,15
��Ƃ�̍L��,�C�ݕ���,2022/6/24,10:00,58,20
��Ƃ�̍L��,�C�ݕ���,2022/6/24,11:00,51,31
��Ƃ�̍L��,�C�ݕ���,2022/6/24,12:00,68,32
��Ƃ�̍L��,�C�ݕ���,2022/6/24,13:00,59,39
��Ƃ�̍L��,�C�ݕ���,2022/6/24,14:00,72,37
��Ƃ�̍L��,�C�ݕ���,2022/6/24,15:00,68,42
��Ƃ�̍L��,�C�ݕ���,2022/6/24,16:00,64,50
��Ƃ�̍L��,�C�ݕ���,2022/6/24,17:00,44,35
��Ƃ�̍L��,�C�ݕ���,2022/6/24,18:00,32,31
��Ƃ�̍L��,�C�ݕ���,2022/6/24,19:00,24,15
��Ƃ�̍L��,�C�ݕ���,2022/6/24,20:00,18,3
��Ƃ�̍L��,�C�ݕ���,2022/6/24,21:00,35,9
��Ƃ�̍L��,�C�ݕ���,2022/6/24,22:00,9,0
��Ƃ�̍L��,�C�ݕ���,2022/6/24,23:00,4,1
��Ƃ�̍L��,�C�ݕ���,2022/6/25,0:00,0,0
��Ƃ�̍L��,�C�ݕ���,2022/6/25,1:00,1,1
��Ƃ�̍L��,�C�ݕ���,2022/6/25,2:00,3,1
��Ƃ�̍L��,�C�ݕ���,2022/6/25,3:00,2,1
��Ƃ�̍L��,�C�ݕ���,2022/6/25,4:00,3,0
��Ƃ�̍L��,�C�ݕ���,2022/6/25,5:00,0,2
��Ƃ�̍L��,�C�ݕ���,2022/6/25,6:00,5,5
��Ƃ�̍L��,�C�ݕ���,2022/6/25,7:00,3,1
��Ƃ�̍L��,�C�ݕ���,2022/6/25,8:00,20,14
��Ƃ�̍L��,�C�ݕ���,2022/6/25,9:00,46,27
��Ƃ�̍L��,�C�ݕ���,2022/6/25,10:00,62,28
��Ƃ�̍L��,�C�ݕ���,2022/6/25,11:00,51,50
��Ƃ�̍L��,�C�ݕ���,2022/6/25,12:00,99,47
��Ƃ�̍L��,�C�ݕ���,2022/6/25,13:00,85,66
��Ƃ�̍L��,�C�ݕ���,2022/6/25,14:00,97,42
��Ƃ�̍L��,�C�ݕ���,2022/6/25,15:00,72,50
��Ƃ�̍L��,�C�ݕ���,2022/6/25,16:00,72,87
��Ƃ�̍L��,�C�ݕ���,2022/6/25,17:00,90,82
��Ƃ�̍L��,�C�ݕ���,2022/6/25,18:00,51,36
��Ƃ�̍L��,�C�ݕ���,2022/6/25,19:00,0,0
��Ƃ�̍L��,�C�ݕ���,2022/6/25,20:00,0,0
��Ƃ�̍L��,�C�ݕ���,2022/6/25,21:00,0,0
��Ƃ�̍L��,�C�ݕ���,2022/6/25,22:00,0,0
��Ƃ�̍L��,�C�ݕ���,2022/6/25,23:00,0,0
��Ƃ�̍L��,�C�ݕ���,2022/6/26,0:00,0,0
��Ƃ�̍L��,�C�ݕ���,2022/6/26,1:00,0,0
��Ƃ�̍L��,�C�ݕ���,2022/6/26,2:00,0,0
��Ƃ�̍L��,�C�ݕ���,2022/6/26,3:00,0,0
��Ƃ�̍L��,�C�ݕ���,2022/6/26,4:00,0,0
��Ƃ�̍L��,�C�ݕ���,2022/6/26,5:00,0,0
��Ƃ�̍L��,�C�ݕ���,2022/6/26,6:00,0,0
��Ƃ�̍L��,�C�ݕ���,2022/6/26,7:00,0,0
��Ƃ�̍L��,�C�ݕ���,2022/6/26,8:00,0,0
��Ƃ�̍L��,�C�ݕ���,2022/6/26,9:00,0,0
��Ƃ�̍L��,�C�ݕ���,2022/6/26,10:00,0,0
��Ƃ�̍L��,�C�ݕ���,2022/6/26,11:00,0,0
��Ƃ�̍L��,�C�ݕ���,2022/6/26,12:00,0,0
��Ƃ�̍L��,�C�ݕ���,2022/6/26,13:00,0,0
��Ƃ�̍L��,�C�ݕ���,2022/6/26,14:00,0,0
��Ƃ�̍L��,�C�ݕ���,2022/6/26,15:00,0,0
��Ƃ�̍L��,�C�ݕ���,2022/6/26,16:00,0,0
��Ƃ�̍L��,�C�ݕ���,2022/6/26,17:00,0,0
��Ƃ�̍L��,�C�ݕ���,2022/6/26,18:00,0,0
��Ƃ�̍L��,�C�ݕ���,2022/6/26,19:00,0,0
��Ƃ�̍L��,�C�ݕ���,2022/6/26,20:00,0,0
��Ƃ�̍L��,�C�ݕ���,2022/6/26,21:00,0,0